Wind_Speed
23 24 24 24 24 24 24 24 25 25 26 26 26 26 26 25 25 25 25 24 24 24 25 25 25 25 26 25 25 24 24 24 24 24 24 24 24 24 23 23 23 21 21
24 24 25 25 25 25 26 26 26 26 27 27 27 27 27 27 27 26 26 26 27 27 27 27 27 27 27 27 27 27 27 27 26 26 26 26 26 25 25 24 24 24 23
25 25 25 25 26 27 27 28 28 28 28 28 28 29 29 29 29 28 28 28 29 28 29 29 29 29 29 29 29 28 28 28 28 28 27 27 27 27 26 26 26 26 26
26 27 27 27 28 28 29 29 29 29 29 30 30 30 29 30 30 31 30 30 30 30 30 30 30 29 29 29 29 29 29 29 29 28 28 27 28 28 27 27 27 27 27
26 27 28 28 28 29 29 29 30 30 30 31 31 31 31 31 32 32 32 32 32 32 32 31 31 30 30 30 29 30 30 29 29 29 28 28 29 29 29 28 28 28 28
28 28 28 28 28 29 30 30 31 32 32 32 32 32 32 33 33 33 34 34 34 33 33 32 33 32 31 31 31 31 30 30 30 29 29 29 29 30 30 29 29 29 29
29 30 30 30 30 30 31 32 33 33 33 33 33 33 33 34 34 34 35 36 35 34 34 33 33 33 32 32 32 32 32 31 31 30 30 29 29 30 30 30 30 30 30
30 31 31 31 32 32 33 33 34 34 34 33 33 33 33 34 35 35 34 35 35 34 34 33 33 34 33 33 33 33 33 32 32 32 31 30 30 30 31 31 31 30 30
31 32 32 32 33 34 34 34 34 33 33 32 33 34 34 35 35 35 36 36 35 35 34 34 33 33 33 33 34 34 33 33 33 33 33 32 31 31 32 31 30 31 31
33 33 33 34 34 35 35 34 34 34 34 34 34 34 35 35 35 36 36 36 36 35 35 35 34 34 34 34 35 35 35 34 34 34 34 33 32 32 32 32 31 32 32
33 33 34 35 35 35 35 36 36 36 36 36 35 35 35 36 37 37 37 36 36 36 35 35 34 34 34 35 36 36 35 35 35 35 35 34 34 33 33 33 33 33 33
34 35 35 35 35 36 36 36 36 36 36 36 36 36 36 37 37 37 37 37 36 36 35 35 34 35 35 36 36 36 36 36 36 36 35 34 34 34 34 33 33 33 33
35 36 36 37 37 37 38 38 37 37 37 37 37 37 37 37 38 38 38 37 36 36 35 35 35 35 36 36 37 37 37 37 37 36 35 34 34 34 35 35 35 34 33
36 37 38 38 38 38 39 39 39 38 39 39 39 38 38 38 38 38 37 37 36 36 36 36 36 35 36 37 37 37 36 37 37 36 36 35 35 35 35 36 35 34 34
37 38 39 40 40 39 39 39 39 38 39 39 39 39 38 38 38 37 37 37 37 37 37 37 36 36 37 37 37 37 36 36 35 35 36 35 35 36 36 36 36 35 34
38 38 39 39 40 40 39 39 38 38 38 38 38 38 38 38 38 37 37 37 36 36 37 37 36 35 35 36 36 36 36 35 35 35 35 36 36 36 37 37 37 36 35
37 38 38 39 39 39 39 38 38 38 38 37 38 38 38 37 37 37 36 36 35 35 36 36 35 35 35 35 35 35 35 36 36 36 36 36 37 37 37 37 37 36 35
37 37 37 38 37 37 37 38 38 38 37 37 37 37 37 37 37 37 36 36 36 36 36 36 35 35 34 34 34 34 34 35 36 36 36 37 37 36 36 36 35 35 35
36 37 37 37 37 37 37 37 37 37 37 36 36 36 36 36 36 36 36 36 36 36 35 35 35 34 34 34 34 33 33 34 34 35 35 35 35 36 36 35 35 35 34
36 36 37 37 36 36 36 36 36 36 36 35 35 35 35 35 34 34 33 33 34 34 34 34 33 33 33 33 32 32 32 33 33 33 33 33 34 35 35 35 35 34 34
37 37 37 36 36 35 35 36 35 35 34 33 33 33 33 33 32 32 32 32 32 31 31 31 31 31 31 32 32 32 32 32 33 33 33 32 32 33 34 34 34 34 34
36 36 36 36 35 35 35 35 34 34 33 33 32 32 31 31 31 31 30 31 30 30 30 30 30 30 31 31 32 31 32 32 32 32 32 32 31 31 32 32 32 32 33
35 35 35 35 35 34 34 34 34 34 33 33 32 31 30 30 30 30 30 30 30 29 29 29 29 30 30 30 30 31 32 32 32 32 31 30 30 30 31 31 31 31 32
35 35 35 35 34 34 33 33 33 32 32 32 31 31 30 30 30 29 29 29 29 29 29 29 28 28 29 29 29 30 30 30 30 30 30 30 30 30 30 30 30 31 31
34 34 34 34 33 32 32 31 31 30 30 30 30 30 29 29 29 29 28 28 28 28 28 28 28 28 28 28 29 29 28 28 28 28 29 29 29 29 29 29 29 29 30
33 33 33 32 32 31 30 31 31 31 30 30 30 30 29 28 28 29 29 28 28 27 27 27 27 28 27 27 27 27 27 26 27 27 28 29 29 30 29 29 29 28 28
Wind_Direction
281 280 280 281 280 280 280 280 280 279 278 279 278 276 277 278 279 279 280 280 282 283 285 284 282 281 279 277 277 277 277 275 274 273 273 272 271 270 270 269 267 266 266
281 281 280 280 280 280 281 281 282 281 280 279 277 277 277 276 277 277 278 279 281 282 283 283 281 280 279 278 277 277 277 276 274 273 272 273 273 271 270 268 267 265 264
281 282 283 280 279 281 283 283 283 283 282 281 279 278 277 276 275 276 277 279 281 282 282 282 280 279 279 279 277 278 277 276 274 272 271 270 271 271 269 268 267 266 265
282 282 283 282 282 282 282 283 282 282 281 280 280 279 277 276 275 276 277 278 280 280 282 282 280 279 279 278 276 276 276 276 274 272 271 270 270 270 269 268 267 267 267
282 282 283 284 284 283 283 283 283 282 281 280 279 278 278 277 276 276 277 277 279 280 281 280 279 278 277 276 275 275 275 275 275 273 272 270 270 270 269 268 266 267 267
283 283 284 283 283 282 283 284 285 284 282 280 278 278 278 278 277 277 277 278 279 279 280 279 278 278 276 274 275 275 274 274 273 273 272 271 269 268 268 268 266 266 266
283 283 284 283 283 282 282 283 284 284 284 282 278 278 278 278 278 279 278 278 279 279 277 276 276 276 275 274 274 274 274 273 272 272 272 270 269 268 268 268 266 266 264
283 284 284 283 284 284 285 286 284 283 282 281 280 279 278 279 279 279 278 278 278 278 277 276 275 274 274 274 274 274 274 273 272 271 271 270 268 268 268 268 266 265 264
284 285 284 284 284 284 285 287 286 284 284 283 282 281 280 280 280 280 278 278 277 276 276 275 275 274 274 274 274 274 273 271 270 270 270 269 268 268 267 268 267 264 263
286 286 285 285 285 284 285 285 285 285 284 284 283 282 282 282 282 281 280 279 278 276 276 275 273 274 273 273 273 273 272 271 269 268 267 268 267 267 266 267 267 266 264
287 287 287 286 285 284 285 285 285 284 284 284 284 283 283 284 283 283 282 281 280 278 277 275 273 272 272 273 273 272 272 270 268 266 266 266 265 266 266 266 266 265 264
286 287 288 287 286 284 284 284 284 284 284 284 284 284 283 283 283 283 283 282 280 278 277 276 274 273 272 272 272 271 270 269 268 266 265 264 264 264 265 266 266 265 265
286 287 289 288 286 285 285 285 284 284 283 285 284 284 284 283 282 282 282 281 279 278 276 275 274 273 273 272 272 271 269 268 267 265 264 264 263 263 263 264 265 265 265
288 288 288 288 288 286 286 285 284 284 284 285 285 284 284 284 283 281 281 280 278 277 275 274 274 274 274 273 272 271 269 268 267 265 265 264 262 261 262 263 264 265 265
289 289 290 290 290 288 287 287 286 285 285 285 285 285 284 284 283 282 280 279 278 277 275 274 274 275 274 274 273 272 270 268 266 266 266 264 261 261 262 262 263 264 264
289 290 290 290 289 288 288 287 286 286 285 285 285 285 284 283 283 282 281 280 279 278 276 274 274 274 273 273 272 271 269 268 267 266 265 264 263 262 261 261 263 263 264
290 291 290 290 290 289 288 287 286 286 286 286 285 285 285 283 283 282 280 279 278 278 276 275 274 274 274 272 270 269 268 267 267 267 266 265 264 263 261 261 262 262 262
290 290 291 292 291 291 290 288 287 287 286 285 284 284 284 284 283 282 280 279 277 276 275 274 273 273 272 271 271 270 268 268 267 267 267 265 263 262 260 260 260 260 260
291 291 292 291 291 290 291 291 290 288 287 286 284 284 283 284 283 281 280 279 278 275 274 273 273 272 271 271 271 270 270 269 268 267 267 265 262 260 259 259 258 258 257
293 293 293 292 291 291 291 291 291 290 289 288 286 285 284 284 282 281 281 281 279 276 274 273 272 271 271 271 271 271 270 270 269 269 268 266 264 261 259 257 256 256 255
294 294 294 293 292 290 291 291 291 291 291 289 287 287 286 285 283 282 281 281 279 276 275 274 273 272 272 271 271 271 271 271 271 269 268 267 265 261 258 256 255 255 255
295 295 294 294 293 291 290 290 290 291 291 290 288 287 286 285 283 282 282 281 279 277 274 274 274 273 274 273 272 271 271 272 271 269 268 266 264 261 257 255 253 254 255
295 294 294 294 293 291 291 290 290 290 289 288 287 285 284 283 283 283 282 280 278 276 275 274 274 274 274 274 273 273 273 272 270 268 267 265 262 260 257 255 255 255 255
295 294 294 294 293 292 291 291 290 288 288 287 286 285 284 283 283 283 282 279 277 276 274 273 274 274 275 276 276 276 275 273 269 268 268 265 263 261 259 257 256 255 254
295 295 295 294 293 291 290 290 290 289 287 287 287 287 286 285 282 280 279 278 277 276 275 274 275 277 278 277 277 276 274 272 270 270 269 267 265 263 260 257 254 252 251
295 295 295 294 293 291 290 291 291 290 289 289 288 287 285 284 282 279 277 278 278 278 278 278 278 279 279 279 278 276 274 273 271 270 270 268 266 263 259 255 252 251 250
Height
5804 5803 5802 5800 5800 5799 5798 5797 5796 5795 5794 5793 5792 5791 5790 5790 5789 5788 5787 5786 5785 5784 5782 5781 5779 5778 5777 5776 5775 5774 5774 5773 5773 5772 5772 5771 5771 5771 5771 5771 5771 5771 5772
5797 5796 5795 5794 5793 5792 5791 5790 5789 5787 5786 5785 5784 5783 5782 5782 5781 5780 5779 5778 5777 5776 5774 5772 5771 5769 5768 5768 5767 5766 5766 5765 5765 5764 5764 5763 5763 5763 5764 5764 5764 5764 5765
5790 5789 5788 5787 5786 5784 5783 5782 5781 5780 5778 5777 5776 5775 5774 5773 5772 5771 5771 5770 5768 5767 5765 5764 5762 5761 5759 5759 5758 5757 5757 5756 5756 5755 5755 5755 5754 5755 5755 5756 5756 5757 5757
5783 5782 5781 5779 5778 5777 5775 5774 5772 5771 5770 5769 5767 5766 5765 5764 5763 5763 5762 5761 5759 5758 5756 5755 5753 5751 5750 5750 5749 5748 5748 5747 5746 5746 5746 5746 5746 5746 5746 5747 5748 5748 5749
5776 5775 5773 5772 5770 5769 5767 5765 5764 5762 5761 5759 5758 5757 5755 5754 5754 5753 5752 5751 5750 5748 5746 5745 5744 5742 5741 5741 5740 5739 5739 5738 5737 5737 5737 5737 5737 5737 5738 5738 5739 5739 5740
5768 5767 5765 5764 5762 5760 5759 5757 5755 5753 5751 5750 5748 5747 5746 5744 5743 5742 5742 5741 5739 5738 5736 5735 5734 5733 5732 5731 5730 5730 5729 5729 5728 5728 5728 5728 5728 5728 5728 5729 5730 5731 5732
5760 5758 5756 5755 5753 5751 5750 5748 5746 5744 5742 5740 5738 5737 5736 5734 5733 5732 5730 5730 5728 5727 5725 5724 5723 5722 5722 5721 5721 5720 5720 5719 5719 5719 5719 5718 5718 5718 5719 5720 5720 5721 5722
5751 5749 5747 5746 5744 5742 5740 5737 5735 5733 5732 5730 5728 5726 5725 5724 5722 5721 5719 5718 5717 5716 5714 5713 5713 5712 5712 5711 5711 5710 5710 5710 5709 5709 5709 5709 5709 5709 5709 5710 5711 5712 5713
5742 5740 5738 5736 5734 5732 5729 5727 5725 5723 5721 5719 5717 5716 5714 5713 5711 5709 5708 5707 5706 5705 5704 5703 5702 5701 5701 5700 5700 5700 5699 5699 5699 5699 5699 5699 5699 5699 5700 5700 5701 5701 5703
5733 5731 5728 5726 5724 5721 5719 5717 5714 5712 5710 5709 5707 5705 5703 5702 5700 5698 5696 5695 5695 5694 5693 5692 5691 5690 5690 5689 5689 5689 5688 5688 5688 5688 5688 5689 5689 5689 5690 5690 5691 5691 5692
5723 5721 5718 5716 5713 5711 5709 5707 5704 5702 5700 5698 5697 5695 5693 5691 5689 5687 5685 5684 5683 5682 5681 5681 5680 5679 5678 5678 5677 5677 5677 5677 5677 5677 5677 5678 5679 5679 5679 5680 5680 5681 5682
5713 5711 5708 5705 5703 5700 5698 5696 5694 5691 5690 5688 5686 5684 5681 5679 5677 5675 5674 5672 5671 5670 5669 5669 5668 5667 5666 5666 5665 5665 5665 5665 5665 5665 5666 5667 5668 5668 5669 5669 5669 5670 5671
5703 5701 5698 5695 5692 5689 5687 5685 5683 5681 5679 5677 5675 5673 5670 5668 5665 5664 5662 5660 5659 5658 5657 5657 5656 5655 5655 5654 5654 5653 5653 5653 5653 5654 5655 5656 5657 5657 5658 5658 5659 5659 5660
5693 5690 5687 5684 5681 5678 5675 5673 5671 5669 5667 5665 5663 5661 5659 5656 5654 5652 5650 5648 5647 5646 5645 5645 5644 5643 5643 5642 5642 5641 5641 5641 5641 5642 5643 5644 5645 5645 5646 5647 5648 5648 5649
5682 5679 5676 5672 5669 5666 5664 5661 5658 5656 5654 5652 5650 5648 5646 5644 5642 5640 5638 5637 5635 5634 5633 5633 5632 5632 5631 5630 5630 5629 5629 5629 5629 5630 5630 5631 5632 5634 5635 5636 5636 5637 5638
5671 5668 5664 5661 5658 5654 5652 5649 5646 5644 5642 5639 5637 5635 5633 5631 5629 5628 5626 5624 5623 5622 5621 5621 5620 5620 5619 5618 5618 5617 5617 5617 5617 5617 5618 5619 5620 5621 5623 5624 5625 5626 5627
5659 5656 5652 5649 5646 5643 5640 5637 5635 5632 5630 5627 5625 5623 5621 5619 5617 5615 5614 5613 5611 5610 5609 5609 5608 5608 5607 5606 5606 5606 5606 5605 5605 5606 5606 5607 5608 5609 5610 5611 5613 5614 5615
5648 5644 5641 5638 5634 5631 5628 5625 5622 5620 5618 5616 5613 5611 5609 5607 5605 5603 5602 5601 5599 5598 5598 5597 5596 5596 5595 5595 5595 5594 5594 5594 5594 5594 5594 5595 5596 5597 5598 5599 5601 5602 5603
5637 5634 5630 5627 5623 5620 5616 5613 5610 5608 5606 5604 5602 5600 5597 5595 5593 5592 5590 5588 5587 5586 5586 5585 5584 5584 5584 5584 5583 5583 5583 5583 5583 5582 5582 5583 5584 5585 5586 5588 5589 5590 5592
5626 5623 5619 5616 5612 5609 5606 5603 5600 5597 5594 5592 5590 5588 5586 5584 5582 5580 5579 5577 5576 5575 5574 5574 5573 5573 5573 5573 5572 5572 5572 5572 5571 5571 5571 5571 5572 5573 5574 5576 5577 5579 5581
5615 5612 5608 5605 5602 5598 5595 5592 5589 5586 5583 5581 5579 5577 5575 5573 5571 5570 5568 5567 5566 5564 5564 5563 5563 5563 5562 5561 5561 5561 5561 5561 5560 5560 5560 5560 5560 5561 5562 5564 5566 5568 5570
5605 5601 5597 5594 5591 5588 5585 5582 5579 5576 5573 5571 5569 5566 5564 5563 5561 5560 5558 5557 5556 5555 5554 5554 5553 5552 5552 5551 5550 5550 5550 5550 5549 5549 5549 5549 5550 5550 5552 5553 5555 5557 5559
5594 5591 5587 5584 5580 5577 5574 5571 5568 5566 5563 5561 5559 5557 5555 5553 5552 5550 5549 5547 5546 5545 5545 5544 5543 5543 5542 5541 5540 5539 5539 5539 5539 5539 5539 5539 5539 5540 5541 5543 5545 5546 5549
5584 5580 5577 5574 5570 5567 5564 5561 5558 5556 5553 5551 5549 5547 5545 5544 5542 5541 5539 5538 5537 5536 5535 5535 5534 5533 5532 5531 5530 5529 5529 5528 5528 5528 5528 5529 5530 5530 5532 5533 5535 5536 5538
5573 5570 5567 5563 5560 5557 5554 5552 5549 5546 5544 5542 5540 5538 5536 5535 5533 5532 5530 5529 5528 5527 5527 5526 5525 5524 5523 5521 5520 5520 5519 5518 5518 5518 5518 5519 5520 5520 5521 5523 5525 5526 5528
5563 5560 5557 5553 5550 5548 5545 5542 5540 5537 5535 5533 5531 5529 5527 5525 5524 5523 5522 5520 5519 5518 5518 5517 5516 5515 5513 5512 5511 5510 5509 5509 5509 5509 5509 5509 5510 5510 5511 5513 5515 5517 5519